Location: Altavilla Irpina
(41.0000°N, 14.7833°E)
Time: 07:04:07
(UTC+00:00)

SL-16 R/B - Pass Details

Date: 19 May 2025
Orbit: 841 x 844 km, 71.0° (Epoch: 14 June)

Event Time Altitude Azimuth Distance (km) Brightness Sun altitude
Rises 21:00:00 0° 348° (NNW) 3,411 6.6 -23.2°
Reaches altitude 10° 21:03:15 10° 6° (N) 2,473 5.3 -23.5°
Maximum altitude 21:07:10 19° 50° (NE) 1,923 4.1 -23.9°
Enters shadow 21:09:25 15° 79° (E) 2,120 4.1 -24.1°
